Starlink 32291

operational
NORAD ID: 62442 Int'l Des: 2024-251 Owner: SPXS Country: US Constellation: starlink
LEOCIRCULAR

About Starlink 32291

Description loading...

Live Position

Loading 3D Globe...

Upcoming Passes

Altitude History

Altitude vs Time

uPlot chart will show altitude changes over time

Two-Line Element Set

1 62442U 24251L 25304.07277963 .00029634 00000-0 10099-2 0 9992
2 62442 53.1591 217.3484 0000993 96.2522 263.8591 15.30159580 47798
Epoch: Oct 31, 2025 • Age: 19 hours

Current Status

Altitude 478.9 km
Velocity 7.63 km/s
Sub-Earth Point 42.86°N, 95.16°W
Launch Date Dec 29, 2024
Age 0.8 years
Type internet

Technical Details

Classification Payload
Mass 730.00 kg
Dry Mass 700.00 kg
Total Mass 730.00 kg
Length 0.30 m
Diameter 4.10 m
Span 29.00 m
Shape Box + pan
Manufacturer SPXS
Bus Type Starlink V2M
Phase Status In Orbit
Owner/State SPXS/US

Large Constellations

Loading constellations...